Find OneWeb SL0092

NORAD ID: 45437 Int'l Des: 2020-020 Owner: ONEWEB Country: UK Constellation: oneweb operational
LEOCIRCULARPOLARONEWEB_TYPE

Live Position

Loading 3D Globe...

About OneWeb SL0092

Description loading...

Upcoming Passes

Passes for default location (London). Set your location on the main map for personalized predictions.

Altitude History

Loading altitude history...

Two-Line Element Set

1 45437U 20020P 26125.44264404 -.00000216 00000-0 -64157-3 0 9998
2 45437 87.8933 29.5641 0001717 89.1501 270.9824 13.11952408297183
Epoch: May 5, 2026 • Age: 7 hours

Current Status

Altitude 1218.6 km
Velocity 7.24 km/s
Sub-Earth Point -0.65°S, 103.26°W
Launch Date Mar 21, 2020
Age 6.1 years
Type internet

Technical Details

Classification Payload
Mass 148.00 kg
Dry Mass 140.00 kg
Total Mass 148.00 kg
Length 1.30 m
Diameter 1.00 m
Span 5.00 m
Shape Trapezoid+2 pan
Manufacturer ONEWUS
Bus Type ARROW
Phase Status In Orbit
Owner/State ONEWEB/UK

Most Searched